Weather History for Glens Falls, NY

Change the Weather History Date:

Thursday, February 28, 2013

  Actual Average Record
Temperature  
Mean Temperature 37 °F 25 °F  
Max Temperature 42 °F 36 °F 56 °F (1954)
Min Temperature 32 °F 14 °F -18 °F (1950)
Degree Days  
Heating Degree Days 28 40  
Month to date heating degree days 1156 1224  
Since 1 July heating degree days 5101 5620  
Cooling Degree Days 0 0  
Month to date cooling degree days 0 0  
Year to date cooling degree days 0 0  
Moisture  
Dew Point 32 °F    
Average Humidity 82    
Maximum Humidity 96    
Minimum Humidity 67    
Precipitation  
Precipitation T in 0.08 in 0.64 in (1984)
Month to date precipitation 1.02 2.08  
Year to date precipitation 2.30 4.94  
Sea Level Pressure  
Sea Level Pressure 29.59 in    
Wind  
Wind Speed 1 mph (South)    
Max Wind Speed 9 mph    
Max Gust Speed 12 mph    
Visibility 8 miles    
Events Rain    
T = Trace of Precipitation, MM = Missing Value Source: NWS Daily Summary

Daily Weather History Graph

Daily Weather History Graph

Search for Another Location

Airport:

Trip Planner

Search our weather history database for the weather conditions in past years. The results will help you decide how hot, cold, wet, or windy it might be!

Date:

Astronomy

Feb. 28, 2013 Rise Set
Actual Time 6:31 AM EST 5:42 PM EST
Civil Twilight 6:03 AM EST 6:11 PM EST
Nautical Twilight 5:30 AM EST 6:44 PM EST
Astronomical Twilight 4:57 AM EST 7:17 PM EST
Moon 9:14 PM EST (2/28) 7:33 AM EST (2/28)
Length of Visible Light 12h 07m
Length of Day
11h 10m
Waning Gibbous, 91% of the Moon is Illuminated
Feb 28
Waning Gibbous
Mar 4
Last Quarter
Mar 11
New
Mar 19
First Quarter
Mar 27
Full

Hourly Weather History & Observations

Time (EST) Temp. Windchill Dew Point Humidity Pressure Visibility Wind Dir Wind Speed Gust Speed Precip Events Conditions
12:01 AM 33.8 °F - 30.2 °F 87% 29.62 in 9.0 mi Calm Calm - 0.00 in   Overcast
12:10 AM 33.8 °F - 32.0 °F 93% 29.61 in 7.0 mi Calm Calm - 0.00 in   Overcast
12:53 AM 32.0 °F - 30.9 °F 96% 29.62 in 10.0 mi Calm Calm - 0.00 in   Overcast
1:04 AM 33.8 °F 30.8 °F 30.2 °F 87% 29.60 in 10.0 mi WNW 3.5 mph - N/A   Overcast
1:53 AM 32.0 °F - 30.2 °F 93% 29.58 in 10.0 mi Calm Calm - N/A   Overcast
2:53 AM 32.0 °F - 30.9 °F 96% 29.59 in 9.0 mi Calm Calm - N/A   Overcast
3:51 AM 32.0 °F - 30.2 °F 93% 29.56 in 9.0 mi Calm Calm - N/A   Overcast
3:53 AM 32.0 °F - 30.9 °F 96% 29.59 in 9.0 mi Calm Calm - N/A   Overcast
4:53 AM 32.0 °F - 30.9 °F 96% 29.59 in 8.0 mi Calm Calm - N/A   Overcast
5:18 AM 32.0 °F - 30.2 °F 93% 29.58 in 7.0 mi Calm Calm - N/A   Overcast
5:53 AM 32.0 °F - 30.9 °F 96% 29.60 in 6.0 mi Calm Calm - N/A   Overcast
6:53 AM 32.0 °F - 30.2 °F 93% 29.59 in 5.0 mi Calm Calm - N/A   Overcast
7:18 AM 32.0 °F - 30.2 °F 93% 29.59 in 4.0 mi Calm Calm - N/A   Overcast
7:53 AM 33.1 °F - 32.0 °F 96% 29.62 in 3.0 mi Calm Calm - N/A   Overcast
8:03 AM 33.8 °F - 32.0 °F 93% 29.59 in 2.5 mi Calm Calm - N/A   Overcast
8:15 AM 33.8 °F - 32.0 °F 93% 29.59 in 4.0 mi Calm Calm - N/A   Overcast
8:53 AM 34.0 °F - 32.0 °F 92% 29.62 in 5.0 mi Calm Calm - N/A   Overcast
9:53 AM 35.1 °F 32.2 °F 34.0 °F 96% 29.62 in 5.0 mi SSW 3.5 mph - N/A   Overcast
10:51 AM 35.6 °F 32.8 °F 33.8 °F 93% 29.60 in 7.0 mi South 3.5 mph - N/A   Overcast
10:53 AM 36.0 °F 33.3 °F 34.0 °F 93% 29.62 in 7.0 mi South 3.5 mph - N/A   Overcast
11:53 AM 37.9 °F 35.5 °F 34.0 °F 86% 29.61 in 10.0 mi ESE 3.5 mph - N/A   Overcast
12:22 PM 39.2 °F 37.0 °F 33.8 °F 81% 29.57 in 10.0 mi ESE 3.5 mph - N/A   Overcast
12:33 PM 39.2 °F - 33.8 °F 81% 29.57 in 10.0 mi Calm Calm - N/A   Overcast
12:53 PM 39.9 °F - 33.1 °F 77% 29.59 in 10.0 mi Calm Calm - N/A   Overcast
1:00 PM 41.0 °F - 33.8 °F 76% 29.56 in 10.0 mi Calm Calm - N/A   Overcast
1:53 PM 41.0 °F - 33.1 °F 73% 29.58 in 10.0 mi Calm Calm - 0.00 in Rain Light Rain
2:01 PM 39.2 °F - 33.8 °F 81% 29.56 in 10.0 mi Calm Calm - 0.00 in Rain Light Rain
2:53 PM 41.0 °F - 32.0 °F 70% 29.58 in 10.0 mi Calm Calm - 0.00 in   Overcast
3:10 PM 41.0 °F - 32.0 °F 70% 29.56 in 10.0 mi Calm Calm - N/A   Overcast
3:53 PM 42.8 °F - 32.0 °F 66% 29.56 in 10.0 mi Calm Calm - N/A   Overcast
4:53 PM 41.0 °F 39.0 °F 32.0 °F 70% 29.58 in 10.0 mi NW 3.5 mph - N/A   Overcast
5:53 PM 37.9 °F - 32.0 °F 79% 29.59 in 10.0 mi Calm Calm - N/A   Overcast
6:53 PM 35.1 °F - 30.9 °F 85% 29.60 in 10.0 mi Calm Calm - N/A   Overcast
7:53 PM 33.8 °F - 32.0 °F 93% 29.58 in 10.0 mi Calm Calm - N/A   Overcast
8:53 PM 36.0 °F - 32.0 °F 86% 29.61 in 10.0 mi Calm Calm - N/A   Overcast
9:53 PM 35.1 °F - 32.0 °F 89% 29.62 in 9.0 mi Calm Calm - 0.00 in Rain Light Rain
10:53 PM 35.1 °F - 33.1 °F 92% 29.62 in 10.0 mi Calm Calm - 0.00 in   Overcast
11:53 PM 35.1 °F 29.3 °F 32.0 °F 89% 29.63 in 10.0 mi NNW 6.9 mph - N/A   Overcast